DateTimeUTC,F1_A11,F1_S11,BsB_S11,BsG_S11,BsR_S11,BbsB_S11,BbsG_S11,BbsR_S11,BaB_A11,BaG_A11,BaR_A11,Tu_S11,T_S11,Uu_S11,U_S11,P_S11,T1_A11
2021-01-30T15:00:00Z,00000200,21000000,,,,,,,0000.51,0000.27,0000.36,15.7,23.2,,00.0,0636.7,30.9
2021-01-30T15:01:00Z,00000200,21000000,,,,,,,0000.02,0000.23,0000.10,15.6,23.2,,00.0,0636.7,30.9
2021-01-30T15:02:00Z,00000200,21000000,,,,,,,0000.46,0000.15,0000.08,15.6,23.1,,00.0,0636.7,30.8
2021-01-30T15:03:00Z,00000200,61000000,,,,,,,0000.28,0000.56,0000.51,15.6,23.1,,00.0,0636.7,30.9
2021-01-30T15:04:00Z,00000200,41000000,-000.59,0000.21,0000.21,0000.05,0000.07,0000.09,0000.13,0000.23,0000.16,16.0,22.9,,00.0,0637.5,30.9
2021-01-30T15:05:00Z,00000200,01000000,0000.00,0000.18,-000.04,-000.32,0000.15,0000.04,0000.07,0000.43,0000.55,16.1,22.9,,00.0,0637.5,30.9
2021-01-30T15:06:00Z,00000200,01000000,-000.07,0000.13,0000.24,0000.05,-000.03,0000.19,0000.41,0000.16,-000.25,16.1,22.9,,00.0,0637.5,30.9
2021-01-30T15:07:00Z,00000200,01000000,0000.22,-000.18,-000.42,-000.45,-000.16,-000.20,0000.36,-000.03,0000.35,16.2,22.9,,00.0,0637.5,30.9
2021-01-30T15:08:00Z,00000200,01000000,0000.43,0000.12,0000.10,0000.58,-000.13,0000.25,0000.03,0000.23,-000.25,16.3,23.0,,00.0,0637.5,30.9
2021-01-30T15:09:00Z,00000200,01000000,-000.42,0000.16,0000.12,-000.38,0000.08,-000.00,0000.31,0000.38,0000.44,16.3,23.0,,00.0,0637.4,30.9
2021-01-30T15:10:00Z,00000200,01000000,0000.04,-000.02,0000.15,0000.38,0000.18,-000.08,0000.14,0000.04,-000.19,16.3,23.0,,00.0,0637.4,30.9
2021-01-30T15:11:00Z,00000200,01000000,0000.46,0000.16,-000.04,0000.13,0000.02,0000.14,0000.06,-000.41,-000.02,16.2,23.0,,00.0,0637.4,30.9
2021-01-30T15:12:00Z,00000200,01000000,-000.17,0000.15,-000.18,-000.11,0000.29,0000.03,0000.05,0000.61,0000.52,16.2,22.9,,00.0,0637.3,30.9
2021-01-30T15:13:00Z,00000200,01000000,-000.01,0000.43,-000.14,-000.10,0000.36,-000.18,0000.56,0000.42,-000.01,16.1,22.9,,00.0,0637.3,30.9
2021-01-30T15:14:00Z,00000200,01000000,0000.40,0000.08,-000.13,0000.20,-000.09,-000.21,0000.48,0000.18,0000.15,16.1,22.9,,00.0,0637.3,30.9
2021-01-30T15:15:00Z,00000200,01000000,0000.13,0000.02,-000.08,0000.22,-000.11,0000.43,0000.05,0000.31,0000.21,16.0,22.8,,00.0,0637.2,30.9
2021-01-30T15:16:00Z,00000200,01000000,-000.03,0000.41,0000.27,-000.02,0000.11,0000.02,0000.33,-000.44,0000.11,16.0,22.8,,00.0,0637.2,30.8
2021-01-30T15:17:00Z,00000200,01000000,0000.69,0000.15,0000.12,0000.13,0000.17,0000.06,0000.49,0000.90,0000.72,16.0,22.8,,00.0,0637.2,30.8
2021-01-30T15:18:00Z,00000200,01000000,0000.55,0000.22,-000.19,-000.12,0000.17,-000.21,0000.36,0000.80,0000.10,16.0,22.8,,00.0,0637.1,30.9
2021-01-30T15:19:00Z,00000200,01000000,0000.21,0000.05,0000.30,0000.40,0000.10,0000.31,0000.62,0000.08,0000.14,16.1,22.8,,00.0,0637.1,30.9
2021-01-30T15:20:00Z,00000200,01000000,0000.24,0000.15,0000.38,0000.23,0000.10,-000.09,0000.19,0000.54,0000.42,16.1,22.8,,00.0,0637.1,30.9
2021-01-30T15:21:00Z,00000200,01000000,0000.43,0000.27,0000.12,-000.30,-000.01,-000.01,0000.27,-000.01,0000.04,16.2,22.8,,00.0,0637.0,30.9
2021-01-30T15:22:00Z,00000200,01000000,0000.43,-000.04,0000.09,0000.04,0000.22,0000.17,0000.24,0000.27,0000.40,16.2,22.9,,00.0,0637.1,30.9
2021-01-30T15:23:00Z,00000200,01000000,0000.44,0000.35,0000.23,-000.24,0000.07,0000.22,0000.17,0000.39,-000.00,16.3,22.9,,00.0,0637.0,30.9
2021-01-30T15:24:00Z,00000200,01000000,0000.50,0000.12,0000.21,0000.64,0000.06,0000.13,0000.61,-000.13,-000.25,16.3,22.9,,00.0,0637.0,30.9
2021-01-30T15:25:00Z,00000200,01000000,-000.26,0000.10,0000.00,0000.34,0000.21,0000.06,-000.45,0000.72,0000.27,16.4,22.9,,00.0,0637.0,30.9
2021-01-30T15:26:00Z,00000200,01000000,-000.35,0000.34,-000.06,0000.24,0000.21,-000.07,0000.38,-000.17,0000.04,16.3,22.9,,00.0,0636.9,30.9
2021-01-30T15:27:00Z,00000200,01000000,0000.67,-000.03,-000.13,0000.33,0000.10,-000.21,0000.31,0000.19,0000.49,16.2,22.9,,00.0,0636.9,30.9
2021-01-30T15:28:00Z,00000200,01000000,-000.05,0000.03,0000.10,0000.55,-000.01,0000.25,0000.51,0000.28,0000.10,16.2,22.9,,00.0,0636.9,30.9
2021-01-30T15:29:00Z,00000200,01000000,0000.18,0000.07,-000.09,-000.06,0000.14,0000.19,0000.05,-000.20,-000.47,16.1,22.8,,00.0,0636.8,30.9
2021-01-30T15:30:00Z,00000200,01000000,0000.79,0000.17,-000.01,-000.88,0000.03,-000.01,0000.20,0000.36,0000.55,16.1,22.8,,00.0,0636.8,30.9
2021-01-30T15:31:00Z,00000200,01000000,0000.50,0000.11,0000.02,-000.49,-000.01,0000.20,0000.08,-000.07,0000.14,16.0,22.8,,00.0,0636.8,30.9
2021-01-30T15:32:00Z,00000200,01000000,0000.77,0000.30,0000.15,0000.79,0000.22,0000.03,0000.42,0000.67,0000.17,16.0,22.7,,00.0,0636.7,30.9
2021-01-30T15:33:00Z,00000200,01000000,0000.00,0000.10,0000.25,0000.18,0000.12,0000.04,0000.69,0000.36,0000.39,16.1,22.7,,00.0,0636.7,30.9
2021-01-30T15:34:00Z,00000200,01000000,0000.31,0000.02,-000.01,0000.16,0000.12,0000.18,0000.09,0000.22,0000.19,16.1,22.8,,00.0,0636.7,30.9
2021-01-30T15:35:00Z,00000200,01000000,0000.15,0000.13,0000.17,-000.23,0000.24,0000.17,0000.27,0000.29,0000.10,16.2,22.8,,00.0,0636.7,30.9
2021-01-30T15:36:00Z,00000200,01000000,0000.57,-000.09,0000.11,0000.02,0000.01,-000.11,0000.05,0000.12,0000.09,16.3,22.8,,00.0,0636.7,30.9
2021-01-30T15:37:00Z,00000200,01000000,0000.63,0000.01,-000.00,0000.51,0000.22,0000.06,0000.03,0000.45,0000.12,16.3,22.9,,00.0,0636.7,30.9
2021-01-30T15:38:00Z,00000200,01000000,0000.41,0000.36,-000.02,-000.35,0000.15,0000.12,0000.23,0000.06,-000.12,16.4,22.9,,00.0,0636.7,30.9
2021-01-30T15:39:00Z,00000200,01000000,0000.37,-000.13,0000.20,0000.17,0000.35,0000.25,-000.13,-000.10,0000.09,16.4,22.9,,00.0,0636.7,30.9
2021-01-30T15:40:00Z,00000200,01000000,-000.10,0000.57,0000.28,-000.01,-000.00,0000.12,0000.20,-000.11,0000.06,16.4,22.9,,00.0,0636.7,30.9
2021-01-30T15:41:00Z,00000200,01000000,0000.29,0000.43,0000.06,0000.68,0000.13,-000.10,-000.05,-000.30,-000.23,16.4,22.9,,00.0,0636.7,30.9
2021-01-30T15:42:00Z,00000200,01000000,0000.08,0000.51,0000.10,-000.10,0000.10,0000.18,0000.03,0000.08,0000.18,16.3,22.9,,00.0,0636.7,30.9
2021-01-30T15:43:00Z,00000200,01000000,0000.81,0000.05,0000.16,-000.06,0000.15,-000.04,0000.40,0000.78,0000.41,16.2,22.8,,00.0,0636.7,30.9
2021-01-30T15:44:00Z,00000200,01000000,0000.54,0000.50,0000.06,0000.17,0000.23,0000.04,0000.18,-000.12,-000.03,16.2,22.8,,00.0,0636.7,30.9
2021-01-30T15:45:00Z,00000200,01000000,-000.01,0000.09,0000.10,0000.35,0000.10,-000.17,0000.03,0000.59,-000.14,16.1,22.8,,00.0,0636.7,30.9
2021-01-30T15:46:00Z,00000200,01000000,-000.12,0000.21,0000.05,0000.57,-000.22,0000.22,-000.13,-000.63,0000.04,16.1,22.8,,00.0,0636.7,30.9
2021-01-30T15:47:00Z,00000200,01000000,-000.11,-000.05,0000.18,-000.44,0000.18,0000.15,0000.51,0000.66,0000.43,16.1,22.7,,00.0,0636.7,30.9
2021-01-30T15:48:00Z,00000200,01000000,-000.02,0000.15,0000.12,0000.08,-000.15,0000.21,0000.06,-000.10,0000.04,16.1,22.7,,00.0,0636.6,30.9
2021-01-30T15:49:00Z,00000200,01000000,-000.20,0000.01,0000.22,0000.03,0000.39,0000.13,0000.22,0000.31,0000.19,16.2,22.8,,00.0,0636.6,30.9
2021-01-30T15:50:00Z,00000200,01000000,0000.63,0000.18,0000.06,-000.44,-000.01,0000.04,0000.31,0000.02,0000.29,16.3,22.8,,00.0,0636.6,30.9
2021-01-30T15:51:00Z,00000200,01000000,0000.94,0000.30,0000.14,-000.00,0000.07,0000.17,-000.01,0000.59,0000.20,16.3,22.9,,00.0,0636.6,30.9
2021-01-30T15:52:00Z,00000200,01000000,0000.06,0000.05,-000.20,0000.13,0000.10,0000.05,0000.23,-000.23,0000.26,16.4,22.9,,00.0,0636.6,30.9
2021-01-30T15:53:00Z,00000200,01000000,-000.03,0000.35,0000.16,0000.57,-000.05,-000.22,0000.53,0000.45,-000.07,16.5,22.9,,00.0,0636.6,30.9
2021-01-30T15:54:00Z,00000200,01000000,0000.45,0000.29,0000.18,0000.11,0000.17,-000.05,-000.18,0000.26,-000.22,16.5,22.9,,00.0,0636.7,30.9
2021-01-30T15:55:00Z,00000200,01000000,0000.79,-000.05,0000.22,-000.53,-000.13,-000.03,0000.13,-000.08,0000.57,16.6,23.0,,00.0,0636.6,30.9
2021-01-30T15:56:00Z,00000200,01000000,0000.58,-000.22,-000.00,-000.17,0000.15,0000.08,-000.07,-000.22,-000.06,16.6,23.0,,00.0,0636.6,30.9
2021-01-30T15:57:00Z,00000200,41000000,,,,,,,-001.01,-000.92,-001.21,16.6,23.0,,00.0,0636.6,30.9
2021-01-30T15:58:00Z,00000200,61000000,,,,,,,0000.41,0000.41,0000.33,16.2,23.1,,00.0,0635.7,30.9
2021-01-30T15:59:00Z,00000200,21000000,,,,,,,0000.13,-000.14,-000.21,16.1,23.2,,00.0,0635.7,30.9
